LVOAD SAWE-SAWE

Flight info

Callsign LVOAD
Flight time 0h 3m
Altitude 1000
Route LCL
Aircraft C152/L-S/C

Departure

Time 2026-04-12 19:33
Airport Hermes Quijada International Airport (SAWE)

Arrival

Time 2026-04-12 19:37
Airport Hermes Quijada International Airport (SAWE)
Time Latitude Longitude Altitude Speed Heading
2026-04-12 19:22 -53.78134 -67.74933 35 ft 0 kts 270°
2026-04-12 19:24 -53.78134 -67.74932 35 ft 0 kts 270°
2026-04-12 19:25 -53.78134 -67.74931 35 ft 0 kts 270°
2026-04-12 19:26 -53.78134 -67.74945 35 ft 2 kts 298°
2026-04-12 19:26 -53.78108 -67.74950 35 ft 5 kts 305°
2026-04-12 19:27 -53.78108 -67.75014 35 ft 6 kts 269°
2026-04-12 19:27 -53.78109 -67.75089 35 ft 8 kts 269°
2026-04-12 19:27 -53.78112 -67.75202 35 ft 10 kts 265°
2026-04-12 19:27 -53.78101 -67.75279 35 ft 5 kts 317°
2026-04-12 19:28 -53.78072 -67.75328 35 ft 7 kts 316°
2026-04-12 19:28 -53.78023 -67.75345 35 ft 9 kts
2026-04-12 19:28 -53.77958 -67.75351 35 ft 10 kts 360°
2026-04-12 19:28 -53.77923 -67.75350 35 ft 0 kts 313°
2026-04-12 19:29 -53.77924 -67.75350 35 ft 0 kts 313°
2026-04-12 19:29 -53.77923 -67.75351 35 ft 1 kts 328°
2026-04-12 19:29 -53.77886 -67.75353 35 ft 6 kts 359°
2026-04-12 19:29 -53.77835 -67.75280 36 ft 14 kts 59°
2026-04-12 19:30 -53.77789 -67.75146 37 ft 13 kts 59°
2026-04-12 19:30 -53.77758 -67.75005 38 ft 13 kts 81°
2026-04-12 19:30 -53.77749 -67.74803 36 ft 21 kts 89°
2026-04-12 19:30 -53.77741 -67.74553 35 ft 20 kts 86°
2026-04-12 19:31 -53.77737 -67.74299 33 ft 25 kts 85°
2026-04-12 19:31 -53.77730 -67.74017 34 ft 22 kts 87°
2026-04-12 19:31 -53.77723 -67.73767 36 ft 22 kts 87°
2026-04-12 19:31 -53.77714 -67.73576 38 ft 12 kts 56°
2026-04-12 19:32 -53.77690 -67.73478 38 ft 9 kts 101°
2026-04-12 19:32 -53.77715 -67.73500 38 ft 7 kts 267°
2026-04-12 19:32 -53.77721 -67.73768 36 ft 45 kts 274°
2026-04-12 19:32 -53.77744 -67.74369 160 ft 52 kts 284°
2026-04-12 19:33 -53.77767 -67.74962 356 ft 53 kts 282°
2026-04-12 19:33 -53.77784 -67.75588 564 ft 54 kts 287°
2026-04-12 19:33 -53.77803 -67.76318 700 ft 71 kts 282°
2026-04-12 19:33 -53.77912 -67.77220 838 ft 93 kts 250°
2026-04-12 19:34 -53.78583 -67.77589 853 ft 127 kts 172°
2026-04-12 19:34 -53.79229 -67.76678 936 ft 112 kts 101°
2026-04-12 19:34 -53.79265 -67.75422 902 ft 105 kts 65°
2026-04-12 19:34 -53.79177 -67.74186 914 ft 107 kts 68°
2026-04-12 19:35 -53.79039 -67.72951 869 ft 109 kts 68°
2026-04-12 19:35 -53.78983 -67.71703 909 ft 107 kts 72°
2026-04-12 19:35 -53.78823 -67.70540 908 ft 95 kts 33°
2026-04-12 19:35 -53.78318 -67.70182 862 ft 74 kts 341°
2026-04-12 19:36 -53.77967 -67.70575 764 ft 57 kts 314°
2026-04-12 19:36 -53.77771 -67.71208 588 ft 56 kts 298°
2026-04-12 19:36 -53.77704 -67.71808 482 ft 59 kts 290°
2026-04-12 19:36 -53.77703 -67.72462 286 ft 51 kts 291°
2026-04-12 19:37 -53.77713 -67.73072 147 ft 50 kts 289°
2026-04-12 19:37 -53.77721 -67.73625 54 ft 46 kts 288°
2026-04-12 19:37 -53.77731 -67.74091 34 ft 29 kts 275°
2026-04-12 19:37 -53.77747 -67.74519 52 ft 50 kts 285°
2026-04-12 19:38 -53.77765 -67.75114 205 ft 50 kts 282°
2026-04-12 19:38 -53.77794 -67.75711 416 ft 52 kts 275°
2026-04-12 19:38 -53.77797 -67.76297 593 ft 56 kts 291°
2026-04-12 19:38 -53.77871 -67.76977 766 ft 82 kts 246°
2026-04-12 19:39 -53.78501 -67.77386 916 ft 106 kts 193°
2026-04-12 19:39 -53.79152 -67.76744 969 ft 117 kts 104°
2026-04-12 19:39 -53.79234 -67.75891 929 ft 105 kts 68°
2026-04-12 19:39 -53.79097 -67.74242 781 ft 99 kts 69°
2026-04-12 19:40 -53.78982 -67.73305 754 ft 58 kts 17°
2026-04-12 19:40 -53.78659 -67.73265 780 ft 45 kts 343°
2026-04-12 19:40 -53.78342 -67.73308 644 ft 49 kts 345°
2026-04-12 19:40 -53.78018 -67.73364 361 ft 45 kts 346°
2026-04-12 19:41 -53.77762 -67.73567 111 ft 41 kts 314°
2026-04-12 19:41 -53.77734 -67.74037 34 ft 35 kts 282°
2026-04-12 19:41 -53.77751 -67.74518 87 ft 47 kts 288°
2026-04-12 19:41 -53.77771 -67.75068 269 ft 50 kts 279°
2026-04-12 19:42 -53.77779 -67.75746 400 ft 64 kts 284°
2026-04-12 19:42 -53.77772 -67.76435 726 ft 59 kts 283°
2026-04-12 19:42 -53.77684 -67.77109 862 ft 59 kts 322°
2026-04-12 19:43 -53.77101 -67.75790 898 ft 115 kts 76°
2026-04-12 19:43 -53.77148 -67.74434 977 ft 113 kts 78°
2026-04-12 19:43 -53.77116 -67.73201 646 ft 106 kts 70°
2026-04-12 19:43 -53.77091 -67.71972 339 ft 100 kts 75°
2026-04-12 19:44 -53.77553 -67.71324 285 ft 85 kts 233°
2026-04-12 19:44 -53.77704 -67.71933 285 ft 51 kts 295°
2026-04-12 19:44 -53.77708 -67.72540 207 ft 52 kts 288°
2026-04-12 19:44 -53.77721 -67.73189 107 ft 54 kts 291°
2026-04-12 19:45 -53.77729 -67.73792 46 ft 50 kts 284°
2026-04-12 19:45 -53.77730 -67.74237 33 ft 38 kts 267°
2026-04-12 19:45 -53.77756 -67.74819 124 ft 56 kts 284°
2026-04-12 19:45 -53.77767 -67.75505 322 ft 59 kts 287°
2026-04-12 19:46 -53.77801 -67.76227 553 ft 62 kts 281°
2026-04-12 19:46 -53.78011 -67.76961 760 ft 85 kts 236°
2026-04-12 19:46 -53.78652 -67.76986 912 ft 110 kts 146°
2026-04-12 19:46 -53.78904 -67.75874 927 ft 107 kts 78°
2026-04-12 19:47 -53.78890 -67.74622 805 ft 105 kts 67°
2026-04-12 19:47 -53.78590 -67.73668 684 ft 75 kts 13°
2026-04-12 19:47 -53.78178 -67.73542 437 ft 49 kts 351°
2026-04-12 19:47 -53.77868 -67.73544 178 ft 39 kts 338°
2026-04-12 19:48 -53.77735 -67.73961 42 ft 44 kts 288°
2026-04-12 19:48 -53.77733 -67.74304 33 ft 20 kts 269°
2026-04-12 19:48 -53.77741 -67.74511 35 ft 17 kts 269°
2026-04-12 19:48 -53.77747 -67.74722 36 ft 18 kts 268°
2026-04-12 19:49 -53.77753 -67.74943 37 ft 18 kts 267°
2026-04-12 19:49 -53.77783 -67.75127 38 ft 16 kts 245°
2026-04-12 19:49 -53.77840 -67.75293 36 ft 16 kts 237°
2026-04-12 19:49 -53.77913 -67.75352 35 ft 12 kts 179°
2026-04-12 19:50 -53.78015 -67.75346 35 ft 16 kts 178°
2026-04-12 19:50 -53.78088 -67.75299 35 ft 12 kts 135°
2026-04-12 19:50 -53.78112 -67.75197 35 ft 10 kts 87°
2026-04-12 19:50 -53.78108 -67.75058 35 ft 14 kts 88°
2026-04-12 19:51 -53.78107 -67.74954 35 ft 5 kts 115°
2026-04-12 19:51 -53.78133 -67.74931 35 ft 1 kts 167°
2026-04-12 19:51 -53.78137 -67.74938 35 ft 0 kts 271°
2026-04-12 19:52 -53.78137 -67.74937 35 ft 0 kts 271°